When you browse on this site, cookies collect data to enhance your experience and personalize the content and advertising you see.
Visit our Privacy Policy to learn more. By continuing to use the site, you agree to this use of cookies and data.
  • In Latvia
  • List of Countries
  • For 7 days
  • Water Temperature
  • Satellite Maps
  • Weather Map
  • Weather Widgets
  • user-avatar
    Login

    Hourly Weather Córdoba

    Today, 20 July, Saturday

    Time Temperature Precipitation Wind Pressure Humidity
    00:00 +13°C° 0 mm 2 mps 722 mmHg 70%
    01:00 +13°C° 0 mm 2 mps 722 mmHg 73%
    02:00 +12°C° 0 mm 2 mps 721 mmHg 76%
    03:00 +12°C° 0 mm 2 mps 721 mmHg 79%
    04:00 +12°C° 0 mm 2 mps 721 mmHg 81%
    05:00 +12°C° 0 mm 1 mps 721 mmHg 84%
    06:00 +12°C° 0 mm 2 mps 721 mmHg 84%
    07:00 +12°C° 0 mm 2 mps 721 mmHg 85%
    08:00 +13°C° 0 mm 2 mps 721 mmHg 86%
    09:00 +14°C° 0 mm 3 mps 721 mmHg 80%
    10:00 +16°C° 0 mm 5 mps 720 mmHg 74%
    11:00 +20°C° 0 mm 6 mps 720 mmHg 69%
    12:00 +21°C° 0 mm 6 mps 719 mmHg 65%
    13:00 +22°C° 0 mm 6 mps 718 mmHg 62%
    14:00 +23°C° 0 mm 7 mps 717 mmHg 59%
    15:00 +22°C° 0 mm 7 mps 717 mmHg 62%
    16:00 +22°C° 0 mm 7 mps 716 mmHg 65%
    17:00 +21°C° 0 mm 7 mps 716 mmHg 68%
    18:00 +21°C° 0 mm 6 mps 716 mmHg 74%
    19:00 +20°C° 0 mm 6 mps 715 mmHg 80%
    20:00 +19°C° 0 mm 5 mps 715 mmHg 85%
    21:00 +19°C° 0 mm 5 mps 715 mmHg 84%
    22:00 +20°C° 0 mm 5 mps 714 mmHg 83%
    23:00 +20°C° 0 mm 5 mps 714 mmHg 82%

    Tomorrow, 21 July, Sunday

    Time Temperature Precipitation Wind Pressure Humidity
    00:00 +20°C° 0 mm 5 mps 714 mmHg 81%
    01:00 +20°C° 0 mm 5 mps 713 mmHg 80%
    02:00 +20°C° 0 mm 5 mps 713 mmHg 79%
    03:00 +20°C° 0 mm 5 mps 712 mmHg 81%
    04:00 +19°C° 0 mm 4 mps 712 mmHg 82%
    05:00 +19°C° 0 mm 4 mps 712 mmHg 84%
    06:00 +19°C° 0 mm 4 mps 712 mmHg 81%
    07:00 +20°C° 0 mm 4 mps 712 mmHg 77%
    08:00 +20°C° 0 mm 4 mps 712 mmHg 73%
    09:00 +22°C° 0 mm 3 mps 713 mmHg 64%
    10:00 +25°C° 0 mm 3 mps 714 mmHg 54%
    11:00 +28°C° 0 mm 3 mps 714 mmHg 45%
    12:00 +27°C° 0 mm 5 mps 714 mmHg 46%
    13:00 +27°C° 0 mm 6 mps 714 mmHg 47%
    14:00 +26°C° 0 mm 8 mps 714 mmHg 47%
    15:00 +22°C° 0 mm 8 mps 715 mmHg 46%
    16:00 +18°C° 0 mm 8 mps 716 mmHg 44%
    17:00 +16°C° 0 mm 8 mps 717 mmHg 42%
    18:00 +15°C° 0 mm 8 mps 718 mmHg 37%
    19:00 +13°C° 0 mm 8 mps 719 mmHg 32%
    20:00 +12°C° 0 mm 8 mps 720 mmHg 27%
    21:00 +12°C° 0 mm 7 mps 721 mmHg 25%
    22:00 +11°C° 0 mm 6 mps 722 mmHg 23%
    23:00 +11°C° 0 mm 6 mps 722 mmHg 20%

    Day after tomorrow, 22 July, Monday

    Time Temperature Precipitation Wind Pressure Humidity
    00:00 +10°C° 0 mm 5 mps 723 mmHg 21%
    01:00 +10°C° 0 mm 5 mps 723 mmHg 22%
    02:00 +10°C° 0 mm 5 mps 723 mmHg 23%
    03:00 +10°C° 0 mm 4 mps 723 mmHg 23%
    04:00 +10°C° 0 mm 4 mps 723 mmHg 24%
    05:00 +8°C° 0 mm 4 mps 724 mmHg 25%
    06:00 +10°C° 0 mm 4 mps 725 mmHg 24%
    07:00 +10°C° 0 mm 4 mps 725 mmHg 23%
    08:00 +10°C° 0 mm 4 mps 726 mmHg 23%
    09:00 +11°C° 0 mm 4 mps 727 mmHg 22%
    10:00 +12°C° 0 mm 4 mps 727 mmHg 21%
    11:00 +13°C° 0 mm 5 mps 727 mmHg 20%
    12:00 +13°C° 0 mm 4 mps 727 mmHg 18%
    13:00 +14°C° 0 mm 4 mps 726 mmHg 17%
    14:00 +15°C° 0 mm 4 mps 726 mmHg 15%
    15:00 +14°C° 0 mm 4 mps 726 mmHg 16%
    16:00 +14°C° 0 mm 4 mps 726 mmHg 18%
    17:00 +13°C° 0 mm 4 mps 726 mmHg 19%
    18:00 +12°C° 0 mm 3 mps 727 mmHg 23%
    19:00 +10°C° 0 mm 3 mps 727 mmHg 26%
    20:00 +9°C° 0 mm 2 mps 727 mmHg 30%
    21:00 +8°C° 0 mm 2 mps 728 mmHg 31%
    22:00 +8°C° 0 mm 3 mps 728 mmHg 31%
    23:00 +8°C° 0 mm 3 mps 728 mmHg 32%

    23 July, Tuesday

    Time Temperature Precipitation Wind Pressure Humidity
    00:00 +7°C° 0 mm 3 mps 729 mmHg 33%
    01:00 +7°C° 0 mm 2 mps 729 mmHg 34%
    02:00 +7°C° 0 mm 2 mps 729 mmHg 36%
    03:00 +6°C° 0 mm 2 mps 729 mmHg 37%
    04:00 +5°C° 0 mm 3 mps 729 mmHg 39%
    05:00 +5°C° 0 mm 3 mps 729 mmHg 40%
    06:00 +6°C° 0 mm 2 mps 729 mmHg 40%
    07:00 +6°C° 0 mm 2 mps 730 mmHg 41%
    08:00 +6°C° 0 mm 2 mps 730 mmHg 41%
    09:00 +8°C° 0 mm 2 mps 731 mmHg 37%
    10:00 +10°C° 0 mm 3 mps 731 mmHg 33%
    11:00 +11°C° 0 mm 3 mps 731 mmHg 29%
    12:00 +12°C° 0 mm 3 mps 731 mmHg 26%
    13:00 +13°C° 0 mm 3 mps 730 mmHg 23%
    14:00 +13°C° 0 mm 3 mps 730 mmHg 20%
    15:00 +13°C° 0 mm 3 mps 730 mmHg 21%
    16:00 +13°C° 0 mm 3 mps 730 mmHg 21%
    17:00 +13°C° 0 mm 2 mps 730 mmHg 22%
    18:00 +10°C° 0 mm 2 mps 731 mmHg 26%
    19:00 +9°C° 0 mm 2 mps 731 mmHg 31%
    20:00 +8°C° 0 mm 1 mps 732 mmHg 36%
    21:00 +8°C° 0 mm 1 mps 732 mmHg 38%
    22:00 +7°C° 0 mm 1 mps 733 mmHg 40%
    23:00 +7°C° 0 mm 1 mps 733 mmHg 42%

    24 July, Wednesday

    Time Temperature Precipitation Wind Pressure Humidity
    00:00 +7°C° 0 mm 1 mps 733 mmHg 42%
    01:00 +6°C° 0 mm 1 mps 733 mmHg 42%
    02:00 +6°C° 0 mm 1 mps 734 mmHg 42%
    03:00 +6°C° 0 mm 1 mps 734 mmHg 42%
    04:00 +6°C° 0 mm 1 mps 734 mmHg 43%
    05:00 +6°C° 0 mm 1 mps 734 mmHg 43%
    06:00 +6°C° 0 mm 1 mps 734 mmHg 42%
    07:00 +6°C° 0 mm 1 mps 734 mmHg 41%
    08:00 +6°C° 0 mm 1 mps 734 mmHg 41%
    09:00 +8°C° 0 mm 1 mps 735 mmHg 36%
    10:00 +9°C° 0 mm 2 mps 735 mmHg 32%
    11:00 +12°C° 0 mm 2 mps 735 mmHg 27%
    12:00 +13°C° 0 mm 2 mps 735 mmHg 26%
    13:00 +13°C° 0 mm 3 mps 734 mmHg 25%
    14:00 +14°C° 0 mm 3 mps 734 mmHg 23%
    15:00 +13°C° 0 mm 3 mps 734 mmHg 25%
    16:00 +13°C° 0 mm 3 mps 733 mmHg 26%
    17:00 +12°C° 0 mm 3 mps 733 mmHg 28%
    18:00 +10°C° 0 mm 3 mps 734 mmHg 32%
    19:00 +9°C° 0 mm 2 mps 734 mmHg 36%
    20:00 +7°C° 0 mm 2 mps 734 mmHg 40%
    21:00 +7°C° 0 mm 2 mps 734 mmHg 41%
    22:00 +7°C° 0 mm 1 mps 734 mmHg 42%
    23:00 +7°C° 0 mm 1 mps 734 mmHg 43%

    25 July, Thursday

    Time Temperature Precipitation Wind Pressure Humidity
    00:00 +7°C° 0 mm 1 mps 734 mmHg 44%
    01:00 +6°C° 0 mm 1 mps 734 mmHg 44%
    02:00 +6°C° 0 mm 1 mps 734 mmHg 45%
    03:00 +6°C° 0 mm 1 mps 733 mmHg 47%
    04:00 +5°C° 0 mm 1 mps 733 mmHg 48%
    05:00 +5°C° 0 mm 1 mps 733 mmHg 49%
    06:00 +5°C° 0 mm 1 mps 733 mmHg 49%
    07:00 +5°C° 0 mm 1 mps 733 mmHg 50%
    08:00 +5°C° 0 mm 1 mps 733 mmHg 50%
    09:00 +7°C° 0 mm 2 mps 733 mmHg 46%
    10:00 +9°C° 0 mm 3 mps 733 mmHg 41%
    11:00 +11°C° 0 mm 4 mps 733 mmHg 36%
    12:00 +12°C° 0 mm 4 mps 732 mmHg 35%
    13:00 +13°C° 0 mm 4 mps 732 mmHg 33%
    14:00 +13°C° 0 mm 4 mps 731 mmHg 31%
    15:00 +13°C° 0 mm 4 mps 730 mmHg 33%
    16:00 +12°C° 0 mm 4 mps 730 mmHg 35%
    17:00 +11°C° 0 mm 4 mps 730 mmHg 37%
    18:00 +10°C° 0 mm 3 mps 730 mmHg 42%
    19:00 +8°C° 0 mm 3 mps 730 mmHg 47%
    20:00 +6°C° 0 mm 2 mps 730 mmHg 53%
    21:00 +6°C° 0 mm 2 mps 730 mmHg 53%
    22:00 +6°C° 0 mm 2 mps 730 mmHg 53%
    23:00 +5°C° 0 mm 2 mps 730 mmHg 54%
    Show more